Williamsport, PA

11:03 AM EST on December 16, 2017 (GMT -0500)
Williamsport Rgnl

Weather History for KIPT - February, 2014

Change the Weather History Date:

Wednesday, February 5, 2014

  Actual Average Record
Temperature  
Mean Temperature 28 °F 28 °F  
Max Temperature 33 °F 36 °F 53 °F (1993)
Min Temperature 22 °F 20 °F -10 °F (1918)
Degree Days  
Heating Degree Days 37 37  
Month to date heating degree days 184 186  
Since 1 July heating degree days 3854 3665  
Cooling Degree Days 0 0  
Month to date cooling degree days 0 0  
Year to date cooling degree days 0 0  
Moisture  
Dew Point 24 °F    
Average Humidity 76    
Maximum Humidity 92    
Minimum Humidity 60    
Precipitation  
Precipitation 0.92 in 0.09 in 0.92 in (2014)
Month to date precipitation 1.15 0.43  
Year to date precipitation 2.40 3.13  
Snow  
Snow 6.70 in 0.30 in 7.80 in (1908)
Month to date snowfall 9.0 1.7  
Since 1 July snowfall 33.2 20.9  
Snow Depth 8.00 in    
Sea Level Pressure  
Sea Level Pressure 29.88 in    
Wind  
Wind Speed 6 mph (NNE)    
Max Wind Speed 21 mph    
Max Gust Speed 28 mph    
Visibility 4 miles    
Events Fog , Rain , Snow    
T = Trace of Precipitation, MM = Missing Value Source: NWS Daily Summary

Daily Weather History Graph

Daily Weather History Graph

Search for Another Location

Airport or City:

Trip Planner

Search our weather history database for the weather conditions in past years. The results will help you decide how hot, cold, wet, or windy it might be!

Date:

Astronomy

Feb. 05, 2014 Rise Set
Actual Time 7:14 AM EST 5:29 PM EST
Civil Twilight 6:45 AM EST 5:58 PM EST
Nautical Twilight 6:12 AM EST 6:31 PM EST
Astronomical Twilight 5:40 AM EST 7:03 PM EST
Moon 10:23 AM EST (2/5) No Moon Set
Length of Visible Light 11h 12m
Length of Day
10h 14m
Waxing Crescent, 39% of the Moon is Illuminated
Feb 5
Waxing Crescent
Feb 6
First Quarter
Feb 14
Full
Feb 22
Last Quarter
Mar 1
New

Hourly Weather History & Observations

Time (EST) Temp. Windchill Dew Point Humidity Pressure Visibility Wind Dir Wind Speed Gust Speed Precip Events Conditions
12:14 AM 26.6 °F 22.6 °F 19.4 °F 74% 30.22 in 2.0 mi ESE 3.5 mph - 0.00 in Snow Light Snow
12:18 AM 26.6 °F 22.6 °F 19.4 °F 74% 30.22 in 0.8 mi Variable 3.5 mph - 0.01 in Snow Light Snow
12:32 AM 24.8 °F 16.9 °F 21.2 °F 86% 30.21 in 0.5 mi ENE 6.9 mph - 0.02 in Fog , Snow Snow
12:39 AM 24.8 °F 16.9 °F 23.0 °F 93% 30.20 in 0.5 mi NE 6.9 mph - 0.04 in Fog , Snow Snow
12:50 AM 24.8 °F 15.3 °F 21.2 °F 86% 30.17 in 0.2 mi ENE 9.2 mph - 0.06 in Fog , Snow Heavy Snow
12:54 AM 25.0 °F 15.5 °F 21.9 °F 88% 30.18 in 0.2 mi East 9.2 mph - 0.07 in Fog , Snow Heavy Snow
1:11 AM 24.8 °F 16.9 °F 21.2 °F 86% 30.14 in 0.2 mi ENE 6.9 mph - 0.06 in Fog , Snow Heavy Snow
1:24 AM 24.8 °F 20.5 °F 21.2 °F 86% 30.14 in 0.5 mi ENE 3.5 mph - 0.10 in Fog , Snow Snow
1:31 AM 24.8 °F 20.5 °F 21.2 °F 86% 30.14 in 0.5 mi NE 3.5 mph - 0.11 in Fog , Snow Snow
1:54 AM 25.0 °F 20.7 °F 23.0 °F 92% 30.15 in 0.2 mi East 3.5 mph - 0.17 in Fog , Snow Heavy Snow
2:05 AM 24.8 °F - 23.0 °F 93% 30.13 in 0.5 mi Calm Calm - 0.03 in Fog , Snow Snow
2:24 AM 24.8 °F - 21.2 °F 86% 30.14 in 1.0 mi Calm Calm - 0.05 in Snow Light Snow
2:37 AM 24.8 °F 19.1 °F 21.2 °F 86% 30.12 in 1.2 mi East 4.6 mph - 0.07 in Snow Light Snow
2:52 AM 24.8 °F 19.1 °F 23.0 °F 93% 30.11 in 0.8 mi ENE 4.6 mph - 0.10 in Snow Light Snow
2:54 AM 25.0 °F 18.1 °F 23.0 °F 92% 30.13 in 0.8 mi ENE 5.8 mph - 0.10 in Snow Light Snow
3:19 AM 24.8 °F 16.9 °F 23.0 °F 93% 30.09 in 0.5 mi NE 6.9 mph - 0.05 in Fog , Snow Snow
3:54 AM 25.0 °F 19.3 °F 23.0 °F 92% 30.09 in 0.5 mi ENE 4.6 mph - 0.11 in Fog , Snow Snow
4:54 AM 25.0 °F - 21.9 °F 88% 30.05 in 0.8 mi Calm Calm - 0.12 in Snow Light Snow
5:54 AM 25.0 °F - 21.9 °F 88% 29.99 in 0.5 mi Calm Calm - 0.12 in Fog , Snow Snow
6:33 AM 26.6 °F - 23.0 °F 86% 29.91 in 0.8 mi Calm Calm - 0.07 in Snow Light Snow
6:44 AM 26.6 °F - 23.0 °F 86% 29.91 in 1.2 mi Calm Calm - 0.08 in Snow Light Snow
6:54 AM 26.1 °F - 23.0 °F 88% 29.93 in 2.0 mi Calm Calm - 0.08 in Snow Light Snow
7:17 AM 26.6 °F - 23.0 °F 86% 29.88 in 3.0 mi Calm Calm - 0.01 in Snow Light Snow
7:26 AM 24.8 °F 20.5 °F 23.0 °F 93% 29.85 in 2.0 mi East 3.5 mph - 0.01 in Snow Light Snow
7:33 AM 24.8 °F 19.1 °F 23.0 °F 93% 29.83 in 1.8 mi East 4.6 mph - 0.02 in Snow Light Snow
7:54 AM 26.1 °F - 24.1 °F 92% 29.87 in 2.5 mi Calm Calm - 0.02 in   Overcast
8:02 AM 26.6 °F 22.6 °F 23.0 °F 86% 29.82 in 4.0 mi ENE 3.5 mph - N/A   Overcast
8:54 AM 27.0 °F 20.5 °F 24.1 °F 89% 29.81 in 7.0 mi North 5.8 mph - 0.01 in   Overcast
9:41 AM 28.4 °F - 24.8 °F 86% 29.77 in 4.0 mi Calm Calm - 0.00 in Rain Light Freezing Rain
9:54 AM 28.9 °F - 25.0 °F 85% 29.78 in 2.5 mi Calm Calm - 0.00 in Rain Light Freezing Rain
10:26 AM 28.4 °F - 26.6 °F 93% 29.74 in 1.8 mi Calm Calm - 0.04 in Rain Light Freezing Rain
10:32 AM 28.4 °F - 26.6 °F 93% 29.73 in 1.8 mi Calm Calm - 0.04 in Rain Light Freezing Rain
10:40 AM 28.4 °F 23.3 °F 26.6 °F 93% 29.71 in 2.5 mi East 4.6 mph - 0.05 in Rain Light Freezing Rain
10:54 AM 30.0 °F 22.4 °F 27.0 °F 88% 29.70 in 3.0 mi ENE 8.1 mph - 0.05 in Rain Light Freezing Rain
11:23 AM 30.2 °F - 28.4 °F 93% 29.70 in 2.0 mi Calm Calm - 0.01 in Rain Light Freezing Rain
11:45 AM 30.2 °F 26.7 °F 28.4 °F 93% 29.68 in 2.0 mi East 3.5 mph - 0.01 in Rain Light Freezing Rain
11:54 AM 30.9 °F 22.2 °F 28.0 °F 89% 29.70 in 2.0 mi ENE 10.4 mph - 0.02 in Rain Light Freezing Rain
11:59 AM 30.2 °F 22.6 °F 28.4 °F 93% 29.68 in 1.8 mi ENE 8.1 mph - 0.00 in Snow Light Snow
12:04 PM 32.0 °F 28.7 °F 28.4 °F 87% 29.68 in 2.0 mi East 3.5 mph - 0.00 in Snow Light Snow
12:23 PM 32.0 °F 26.4 °F 28.4 °F 87% 29.67 in 4.0 mi NE 5.8 mph - 0.01 in   Overcast
12:54 PM 32.0 °F 25.6 °F 28.0 °F 85% 29.68 in 10.0 mi Variable 6.9 mph - 0.01 in   Overcast
1:13 PM 32.0 °F 25.6 °F 28.4 °F 87% 29.65 in 2.0 mi Variable 6.9 mph - 0.00 in   Overcast
1:51 PM 33.8 °F - 28.4 °F 81% 29.63 in 4.0 mi Calm Calm - 0.00 in   Overcast
1:54 PM 33.1 °F - 28.9 °F 85% 29.65 in 4.0 mi Calm Calm - 0.00 in   Overcast
2:08 PM 33.8 °F 29.6 °F 28.4 °F 81% 29.63 in 4.0 mi ENE 4.6 mph - N/A   Overcast
2:19 PM 33.8 °F - 28.4 °F 81% 29.63 in 4.0 mi Calm Calm - N/A   Overcast
2:54 PM 33.1 °F - 28.9 °F 85% 29.65 in 7.0 mi Calm Calm - N/A   Overcast
3:54 PM 33.1 °F - 28.9 °F 85% 29.67 in 3.0 mi Calm Calm - 0.00 in   Light Drizzle
4:02 PM 33.8 °F - 30.2 °F 87% 29.65 in 4.0 mi Calm Calm - 0.00 in   Light Drizzle
4:13 PM 32.0 °F - 30.2 °F 93% 29.66 in 2.5 mi Calm Calm - 0.00 in   Light Drizzle
4:49 PM 32.0 °F - 30.2 °F 93% 29.68 in 1.8 mi Calm Calm - 0.01 in   Light Drizzle
4:54 PM 32.0 °F - 30.0 °F 92% 29.71 in 1.2 mi Calm Calm - 0.01 in   Light Drizzle
5:03 PM 32.0 °F 28.7 °F 30.2 °F 93% 29.70 in 0.5 mi NNW 3.5 mph - 0.01 in Fog , Snow Light Snow
5:05 PM 32.0 °F 27.5 °F 30.2 °F 93% 29.71 in 0.5 mi North 4.6 mph - 0.01 in Fog , Snow Light Snow
5:11 PM 32.0 °F 28.7 °F 30.2 °F 93% 29.72 in 1.0 mi NNW 3.5 mph - 0.02 in Snow Light Snow
5:30 PM 32.0 °F 25.6 °F 30.2 °F 93% 29.74 in 1.5 mi WSW 6.9 mph - 0.03 in Snow Light Snow
5:35 PM 32.0 °F 24.8 °F 30.2 °F 93% 29.75 in 2.5 mi West 8.1 mph - 0.03 in Snow Light Snow
5:38 PM 32.0 °F 24.8 °F 30.2 °F 93% 29.75 in 3.0 mi West 8.1 mph - 0.03 in Snow Light Snow
5:54 PM 32.0 °F 22.1 °F 25.0 °F 75% 29.80 in 10.0 mi NW 13.8 mph 18.4 mph 0.03 in Rain Light Rain
6:04 PM 32.0 °F 24.2 °F 24.8 °F 75% 29.79 in 10.0 mi NW 9.2 mph - 0.00 in Snow Light Snow
6:10 PM 30.2 °F 21.3 °F 24.8 °F 80% 29.80 in 9.0 mi WNW 10.4 mph - 0.00 in Snow Light Snow
6:54 PM 28.9 °F 18.6 °F 21.0 °F 72% 29.87 in 10.0 mi WNW 12.7 mph - 0.00 in   Overcast
7:07 PM 28.4 °F 19.1 °F 19.4 °F 69% 29.87 in 10.0 mi WNW 10.4 mph 18.4 mph 0.00 in Snow Light Snow
7:42 PM 28.4 °F 18.0 °F 17.6 °F 64% 29.91 in 9.0 mi WNW 12.7 mph - 0.00 in   Mostly Cloudy
7:54 PM 28.0 °F 18.1 °F 18.0 °F 66% 29.94 in 10.0 mi WNW 11.5 mph 20.7 mph 0.00 in   Overcast
8:28 PM 26.6 °F 13.8 °F 17.6 °F 69% 29.96 in 10.0 mi NNW 17.3 mph 26.5 mph N/A   Overcast
8:54 PM 25.0 °F 14.2 °F 15.1 °F 66% 30.02 in 10.0 mi NW 11.5 mph 21.9 mph N/A   Overcast
9:27 PM 24.8 °F 12.9 °F 14.0 °F 64% 30.03 in 10.0 mi NW 13.8 mph 24.2 mph N/A   Overcast
9:54 PM 24.1 °F 11.5 °F 12.9 °F 62% 30.07 in 10.0 mi WNW 15.0 mph 19.6 mph N/A   Overcast
10:54 PM 23.0 °F 12.4 °F 12.9 °F 65% 30.13 in 10.0 mi NW 10.4 mph - N/A   Overcast
11:54 PM 21.9 °F 8.2 °F 10.9 °F 63% 30.16 in 10.0 mi WNW 16.1 mph 23.0 mph N/A   Overcast